Showing default

T2V, 58016

Orbit data source: Space-Track

T2V, 58016 is a payload satellite owned by GISTDA (TH) in SSO that was launched on Mon, 09 Oct 2023 UTC via a VEGA launch vehicle from the French Guiana (FRGUI). Payload-class satellites include a variety of spacecraft equipped with specific instruments for various scientific and technological missions. These include communications satellites like Starlink; space stations such as the ISS; scientific satellites like the Hubble; Earth observation satellites from companies like Planet Labs, Umbra, and HawkEye 360; GPS; miniature CubeSats for education and research; and military/defense satellites.

Loading next visibility...
Identifier
58016, 2023-155A
Orbit
SSO
Country
Flag of UnknownUnknown / THAI
Related business
Manufacturer
Astrium/Toulouse
Mission
Operational Civil Imaging
Bus & Motor
ASTROBUS-S, Unknown motor
Mass
417 kg wet, 417 kg dry
Launch date (UTC)
2023-10-09 (2 years ago)
Launch vehicle
VEGA
Launch site
French Guiana (FRGUI)
Object type
Payload
Rocket body
Debris
Shape & HBR
Box + 2 Pan, 2.6 m
Radar Cross Section
3.630 m², Large (>1 m²)

Expand to show TLE details & history
Last TLE update: 5 hours ago

TLE from 5 hours ago
0 T2V
1 58016U 23155A   25307.82359532  .00001277  00000-0  16856-3 0  9996
2 58016  97.8849  16.9937 0001330  87.3188 272.8177 14.81736325112057
Epoch: 2025-11-03T19:45Z
TLE epoch observation values (Epoch: 2025-11-03T19:45:58.635Z)
Latitude
-0.00005°
Longitude
37.17996°
Altitude
626.827 km
Speed
7.545 km/s
True Right ascension
01h 07m 58s
True Declination
0° 00' 00"
Sunlit
Object was in full shadow at epoch
Visualization orbit readout
Latitude
Unknown
Longitude
Unknown
Altitude
Unknown
Speed
Unknown
Apparent Right ascension
Unknown
Apparent Declination
Unknown
Sunlit
N/A
Visualization observer readout
Local Sidereal Time
21:09:08
Azimuth
Unknown
Elevation
Unknown
Doppler factor
Unknown
Orbital elements
Apogee altitude
621.817 km
Perigee altitude
619.956 km
Semi-major axis
6,999.024 km
Eccentricity
0.00013
Inclination
97.8849°
RAAN
16.9937°
Arg. of periapsis
87.3188°
True anomaly
272.80248°
Mean anomaly
272.8177°
Eccentric anomaly
272.81009°
Mean motion
3.7067 °/min
Orbital period
97.12 mins
BSTAR
0.00016856
Loading maneuver chart data...
Computing Atmospheric mass density...
Loading historical data...
Loading historical data...
Loading historical data...
Loading historical data...
Loading historical data...
Loading historical data...
Loading historical data...

Documentation

Showing up to 5 results
|